| time (UTC) | temp F | wind direction | speed MPH | gust MPH | rain 1hr in | rain 24hr in | rain mn in | humidity % | barometer mb |
| 20260831021551 | 64 | 302 | 2.0 | 7.0 | 0.00 | 0.01 | 0.01 | 80 | 1019.0 |
| 20260831020035 | 63 | 254 | 3.0 | 7.0 | 0.00 | 0.01 | 0.01 | 84 | 1019.0 |
| 20260831014533 | 63 | 311 | 4.0 | 9.0 | 0.00 | 0.01 | 0.01 | 88 | 1019.1 |
| 20260831013030 | 61 | 267 | 4.0 | 8.0 | 0.00 | 0.01 | 0.01 | 94 | 1019.1 |
| 20260831011526 | 60 | 234 | 2.0 | 6.0 | 0.00 | 0.01 | 0.01 | 95 | 1019.1 |
| 20260831010041 | 59 | 288 | 1.0 | 4.0 | 0.00 | 0.01 | 0.01 | 95 | 1019.2 |
| 20260831004519 | 56 | 40 | 0.0 | 2.0 | 0.00 | 0.01 | 0.01 | 95 | 1019.3 |
| 20260831003015 | 54 | 40 | 0.0 | 0.0 | 0.00 | 0.01 | 0.01 | 95 | 1019.4 |
| 20260831001523 | 52 | 36 | 0.0 | 0.0 | 0.00 | 0.01 | 0.01 | 94 | 1019.5 |
| 20260831000007 | 49 | 37 | 0.0 | 0.0 | 0.00 | 0.01 | 0.01 | 94 | 1019.5 |
| 20260830234504 | 47 | 36 | 0.0 | 0.0 | 0.00 | 0.01 | 0.01 | 94 | 1019.5 |
| 20260830233101 | 46 | 37 | 0.0 | 0.0 | 0.00 | 0.01 | 0.01 | 94 | 1019.5 |
| 20260830231557 | 44 | 40 | 0.0 | 0.0 | 0.00 | 0.01 | 0.01 | 93 | 1019.4 |
| 20260830230056 | 44 | 30 | 0.0 | 0.0 | 0.00 | 0.01 | 0.01 | 93 | 1019.3 |
| 20260830224601 | 44 | 30 | 0.0 | 0.0 | 0.00 | 0.02 | 0.01 | 92 | 1019.0 |
| 20260830223051 | 44 | 30 | 0.0 | 0.0 | 0.00 | 0.02 | 0.01 | 93 | 1018.8 |
| 20260830221549 | 45 | 30 | 0.0 | 0.0 | 0.00 | 0.02 | 0.01 | 93 | 1018.6 |
| 20260830220056 | 44 | 30 | 0.0 | 0.0 | 0.00 | 0.02 | 0.01 | 92 | 1018.4 |
| 20260830214554 | 45 | 39 | 0.0 | 0.0 | 0.00 | 0.02 | 0.01 | 92 | 1018.3 |
| 20260830213045 | 45 | 39 | 0.0 | 0.0 | 0.00 | 0.02 | 0.01 | 93 | 1018.2 |
| 20260830211543 | 45 | 39 | 0.0 | 0.0 | 0.00 | 0.02 | 0.01 | 92 | 1018.2 |
| 20260830210041 | 46 | 40 | 0.0 | 0.0 | 0.00 | 0.02 | 0.01 | 92 | 1018.1 |
| 20260830204540 | 46 | 40 | 0.0 | 0.0 | 0.00 | 0.02 | 0.01 | 92 | 1018.1 |
| 20260830203038 | 46 | 40 | 0.0 | 0.0 | 0.00 | 0.02 | 0.01 | 92 | 1018.2 |
| 20260830201535 | 46 | 37 | 0.0 | 0.0 | 0.00 | 0.02 | 0.01 | 92 | 1018.2 |
| 20260830200035 | 47 | 40 | 0.0 | 0.0 | 0.00 | 0.02 | 0.01 | 93 | 1018.3 |
| 20260830194535 | 47 | 40 | 0.0 | 0.0 | 0.01 | 0.02 | 0.01 | 93 | 1018.4 |
| 20260830193034 | 47 | 40 | 0.0 | 0.0 | 0.01 | 0.02 | 0.01 | 92 | 1018.4 |
| 20260830191532 | 47 | 40 | 0.0 | 0.0 | 0.01 | 0.02 | 0.01 | 92 | 1018.4 |
| 20260830190033 | 47 | 40 | 0.0 | 0.0 | 0.01 | 0.02 | 0.01 | 92 | 1018.5 |
| 20260830184529 | 47 | 40 | 0.0 | 0.0 | 0.00 | 0.01 | 0.00 | 92 | 1018.5 |
| 20260830183028 | 47 | 40 | 0.0 | 0.0 | 0.00 | 0.01 | 0.00 | 92 | 1018.5 |
| 20260830181535 | 47 | 40 | 0.0 | 0.0 | 0.00 | 0.01 | 0.00 | 91 | 1018.3 |
| 20260830180046 | 48 | 40 | 0.0 | 0.0 | 0.00 | 0.01 | 0.00 | 91 | 1018.3 |
| 20260830174527 | 48 | 38 | 0.0 | 0.0 | 0.00 | 0.01 | 0.00 | 91 | 1018.4 |
| 20260830173046 | 49 | 38 | 0.0 | 0.0 | 0.00 | 0.01 | 0.00 | 91 | 1018.3 |
| 20260830171521 | 49 | 38 | 0.0 | 0.0 | 0.00 | 0.01 | 0.00 | 92 | 1018.5 |
| 20260830170019 | 49 | 38 | 0.0 | 0.0 | 0.00 | 0.01 | 0.00 | 92 | 1018.5 |
| 20260830164518 | 48 | 38 | 0.0 | 0.0 | 0.00 | 0.01 | 0.00 | 91 | 1018.6 |
| 20260830163016 | 48 | 38 | 0.0 | 0.0 | 0.00 | 0.01 | 0.00 | 90 | 1018.6 |
| 20260830161512 | 49 | 40 | 0.0 | 0.0 | 0.00 | 0.01 | 0.00 | 90 | 1018.7 |
| 20260830160010 | 50 | 40 | 0.0 | 0.0 | 0.00 | 0.01 | 0.00 | 90 | 1018.8 |
| 20260830154508 | 50 | 37 | 0.0 | 0.0 | 0.00 | 0.01 | 0.01 | 91 | 1018.8 |
| 20260830153007 | 50 | 38 | 0.0 | 0.0 | 0.00 | 0.01 | 0.01 | 90 | 1018.8 |
| 20260830151504 | 51 | 38 | 0.0 | 0.0 | 0.00 | 0.01 | 0.01 | 91 | 1018.9 |
| 20260830150004 | 51 | 38 | 0.0 | 0.0 | 0.00 | 0.01 | 0.01 | 90 | 1019.0 |
| 20260830144503 | 52 | 39 | 0.0 | 0.0 | 0.00 | 0.01 | 0.01 | 90 | 1019.0 |
| 20260830143002 | 52 | 39 | 0.0 | 0.0 | 0.00 | 0.01 | 0.01 | 90 | 1019.1 |
| 20260830141501 | 52 | 39 | 0.0 | 0.0 | 0.00 | 0.01 | 0.01 | 90 | 1019.1 |
| 20260830140001 | 53 | 39 | 0.0 | 0.0 | 0.00 | 0.01 | 0.01 | 90 | 1019.2 |
| 20260830134604 | 53 | 39 | 0.0 | 0.0 | 0.00 | 0.01 | 0.01 | 90 | 1019.3 |
| 20260830133103 | 53 | 39 | 0.0 | 0.0 | 0.00 | 0.01 | 0.01 | 89 | 1019.3 |
| 20260830131615 | 54 | 39 | 0.0 | 0.0 | 0.00 | 0.01 | 0.01 | 89 | 1019.3 |
| 20260830130104 | 54 | 39 | 0.0 | 0.0 | 0.00 | 0.01 | 0.01 | 89 | 1019.3 |
| 20260830124559 | 55 | 40 | 0.0 | 0.0 | 0.00 | 0.01 | 0.01 | 88 | 1019.3 |
| 20260830123059 | 56 | 40 | 0.0 | 0.0 | 0.00 | 0.01 | 0.01 | 88 | 1019.3 |
| 20260830121557 | 56 | 39 | 0.0 | 0.0 | 0.00 | 0.01 | 0.01 | 89 | 1019.2 |
| 20260830120101 | 56 | 40 | 0.0 | 0.0 | 0.00 | 0.01 | 0.01 | 88 | 1019.1 |
| 20260830114603 | 57 | 38 | 0.0 | 0.0 | 0.00 | 0.01 | 0.01 | 87 | 1019.0 |
| 20260830113056 | 57 | 40 | 0.0 | 0.0 | 0.00 | 0.01 | 0.01 | 87 | 1019.0 |
| 20260830111555 | 58 | 40 | 0.0 | 0.0 | 0.00 | 0.01 | 0.01 | 86 | 1018.8 |
| 20260830110115 | 59 | 40 | 0.0 | 0.0 | 0.00 | 0.01 | 0.01 | 85 | 1018.8 |
| 20260830104556 | 61 | 40 | 0.0 | 0.0 | 0.00 | 0.01 | 0.01 | 82 | 1018.5 |
| 20260830103054 | 63 | 40 | 0.0 | 0.0 | 0.00 | 0.01 | 0.01 | 79 | 1018.4 |
| 20260830101552 | 66 | 40 | 0.0 | 0.0 | 0.00 | 0.01 | 0.01 | 79 | 1018.3 |
| 20260830100052 | 68 | 38 | 0.0 | 0.0 | 0.00 | 0.01 | 0.01 | 74 | 1018.3 |
| 20260830094551 | 69 | 40 | 0.0 | 0.0 | 0.00 | 0.01 | 0.01 | 73 | 1018.1 |
| 20260830093116 | 71 | 40 | 0.0 | 0.0 | 0.00 | 0.01 | 0.01 | 70 | 1018.0 |
| 20260830091550 | 72 | 40 | 0.0 | 2.0 | 0.00 | 0.01 | 0.01 | 67 | 1018.1 |
| 20260830090053 | 72 | 56 | 1.0 | 5.0 | 0.00 | 0.01 | 0.01 | 65 | 1018.2 |
| 20260830084551 | 73 | 59 | 2.0 | 5.0 | 0.00 | 0.01 | 0.01 | 64 | 1017.9 |
| 20260830083048 | 74 | 67 | 3.0 | 6.0 | 0.00 | 0.01 | 0.01 | 66 | 1017.9 |
| 20260830081546 | 73 | 54 | 0.0 | 3.0 | 0.00 | 0.01 | 0.01 | 66 | 1018.1 |
| 20260830080047 | 74 | 54 | 1.0 | 5.0 | 0.00 | 0.01 | 0.01 | 65 | 1018.0 |
| 20260830074625 | 74 | 77 | 2.0 | 6.0 | 0.00 | 0.01 | 0.01 | 65 | 1018.2 |
| 20260830073051 | 74 | 92 | 3.0 | 7.0 | 0.00 | 0.01 | 0.01 | 65 | 1018.1 |
| 20260830071547 | 74 | 74 | 3.0 | 8.0 | 0.00 | 0.01 | 0.01 | 65 | 1018.0 |
| 20260830070043 | 74 | 68 | 1.0 | 4.0 | 0.00 | 0.01 | 0.01 | 65 | 1018.0 |
| 20260830064539 | 74 | 145 | 3.0 | 7.0 | 0.00 | 0.01 | 0.01 | 65 | 1018.0 |
| 20260830063032 | 74 | 82 | 2.0 | 7.0 | 0.00 | 0.01 | 0.01 | 67 | 1018.2 |
| 20260830061531 | 73 | 15 | 1.0 | 6.0 | 0.00 | 0.01 | 0.01 | 67 | 1018.2 |
| 20260830060026 | 73 | 94 | 3.0 | 7.0 | 0.00 | 0.01 | 0.01 | 67 | 1018.7 |
| 20260830054526 | 73 | 71 | 2.0 | 10.0 | 0.00 | 0.01 | 0.01 | 67 | 1018.9 |
| 20260830053022 | 71 | 96 | 3.0 | 9.0 | 0.00 | 0.01 | 0.01 | 69 | 1018.9 |
| 20260830051538 | 71 | 129 | 0.0 | 8.0 | 0.00 | 0.01 | 0.01 | 68 | 1018.9 |
| 20260830050020 | 72 | 96 | 2.0 | 6.0 | 0.00 | 0.01 | 0.01 | 67 | 1019.1 |
| 20260830044517 | 72 | 127 | 2.0 | 7.0 | 0.00 | 0.01 | 0.01 | 68 | 1019.3 |
| 20260830043014 | 71 | 17 | 2.0 | 6.0 | 0.00 | 0.01 | 0.01 | 67 | 1019.7 |
| 20260830041530 | 72 | 63 | 2.0 | 5.0 | 0.00 | 0.01 | 0.01 | 66 | 1020.1 |
| 20260830040012 | 71 | 73 | 1.0 | 5.0 | 0.00 | 0.01 | 0.01 | 66 | 1020.5 |
| 20260830034512 | 70 | 77 | 0.0 | 4.0 | 0.00 | 0.01 | 0.01 | 67 | 1020.8 |
| 20260830033002 | 70 | 51 | 1.0 | 8.0 | 0.00 | 0.01 | 0.01 | 69 | 1021.0 |
| 20260830031600 | 71 | 95 | 2.0 | 6.0 | 0.00 | 0.01 | 0.01 | 68 | 1021.3 |
| 20260830030058 | 70 | 86 | 1.0 | 6.0 | 0.00 | 0.01 | 0.01 | 70 | 1021.5 |
| 20260830024558 | 68 | 68 | 4.0 | 11.0 | 0.00 | 0.01 | 0.01 | 73 | 1021.6 |
| 20260830023107 | 67 | 90 | 2.0 | 7.0 | 0.00 | 0.01 | 0.01 | 75 | 1021.9 |